Hourly Weather Roundup
Issued by NWS Central Illinois

Home | Current Version | Previous Version | Text Only | Print | Product List | Glossary On
Versions: 1 2 3 4 5 6 7 8 9 10 11 12 13 14 15 16 17 18 19 20 21 22 23 24 25 26 27 28 29 30 31 32 33 34 35 36 37 38 39 40 41 42 43 44 45 46 47 48 49 50
000
NZUS43 KILX 292210
HWRILX

Area Weather Roundup
National Weather Service Lincoln IL
500 PM CDT SAT APR 29 2017

NOTE:  "FAIR" indicates few or no clouds below 12,000 feet, with
       no sigificant weather and/or obstructions to visibility.


CITY           SKY/WX    TMP DP  RH WIND       PRES   REMARKS
Bloomington    LGT RAIN  45  44  97 NE30G39   29.90F FOG
Champaign      FOG       55  53  93 NE23G30   29.87F VSB 1
Danville       CLOUDY    57  56  98 NE16G26   29.88F FOG
Decatur        CLOUDY    56  56 100 NE23G33   29.81F FOG
Effingham      CLOUDY    76  69  79 E12G17    29.82R
Flora          CLOUDY    80  71  73 SE18G25   29.79F HX  83
Galesburg      RAIN      40  40  99 NE24G31   29.95F WCI  30
Jacksonville     N/A    N/A N/A N/A MISG        N/A
Lacon          TSTM      40  40  99 NE10G23   29.95F VSB 1   WCI  33
Lawrenceville  CLOUDY    79  69  71 SE17      29.84F HX  81
Litchfield     TSTM      61  61  98 SW28G39   29.79R VSB 1
$$


CITY           SKY/WX    TMP DP  RH WIND       PRES   REMARKS
Lincoln        CLOUDY    48  48 100 NE29G36   29.80F FOG
Macomb         LGT SNOW  41  41  99 NE31G38   29.93F WCI  30
Mattoon        CLOUDY    72  65  78 E13       29.83F
Mt Carmel AP   CLOUDY    79  68  69 SE16G22   29.84F HX  82
Olney-Noble AP CLOUDY    78  74  86 SE17G23   29.80F HX  81
Paris AP       CLOUDY   N/A N/A N/A NE8       29.87F
Peoria         TSTM      42  41  96 NE15G35   29.93F VSB 3/4 WCI  34
Pontiac        LGT RAIN  43  43  99 NE33      29.96F WCI  32
Rantoul        CLOUDY    55  54  98 E31G37    29.89F FOG
Robinson       CLOUDY    77  68  74 SE13G20   29.84F
Springfield    LGT RAIN  52  50  93 NE23G40   29.76R FOG
Taylorville    CLOUDY    63  62  99 E24G32    29.69F FOG
$$

...REGIONAL REPORTS...


CITY           SKY/WX    TMP DP  RH WIND       PRES   REMARKS
Chicago O`Hare HVY RAIN  40  37  89 N17       30.14R FOG     WCI  31
Kankakee       CLOUDY    44  42  93 NE16G28   30.02F
Moline         RAIN      41  37  86 NE16G29   30.02F FOG     WCI  33
Mount Sterling LGT RAIN  43  42  97 N16       29.88R
Mount Vernon   CLOUDY    80  69  69 S12G23    29.80F HX  83
Pittsfield     RAIN      47  46  97 N15G22    29.85S
Quincy         LGT RAIN  43  42  97 NE24G33   29.85F FOG     WCI  33
Rockford       TSTM      39  35  86 NE18      30.17S FOG     WCI  30
$$


CITY           SKY/WX    TMP DP  RH WIND       PRES   REMARKS
Burlington     LGT RAIN  42  32  67 NE26G38   29.93F WCI  32
Cedar Rapids   LGT RAIN  43  40  89 NE18      30.07F WCI  35
Des Moines     CLOUDY    44  38  79 NE20G37   29.95F
Kirksville     CLOUDY    43  31  62 NE24G33   29.86F WCI  33
Ottumwa        CLOUDY    44  42  93 NE26G39   29.91F WCI  35
St Louis       TSTM      66  62  87 SW12      29.79R FOG
$$


CITY           SKY/WX    TMP DP  RH WIND       PRES   REMARKS
Terre Haute    CLOUDY    75  65  70 SE10      29.86F
Evansville       N/A     84  67  56 MISG      29.86F HX  86
Indianapolis   CLOUDY    74  63  68 E12       29.93F
Lafayette      CLOUDY    55  55 100 E15G24    29.98F FOG
Madison        LGT RAIN  43  36  76 NE12      30.20R
Milwaukee      LGT RAIN  39  35  86 N22G30    30.19R WCI  29
$$






USA.gov is the U.S. government's official web portal to all federal, state and local government web resources and services.